User: anonymous   Login
Location: Unspecified
(0.0000°N, 0.0000°E)
Time: 00:13:27
(UTC+00:00)
Language:

CUTE 1.7 + AOD 2 - Orbit

View from above orbital plane
View from above orbital plane
View from above satellite
View from above satellite

Ground track
Ground track

The orbit data is extracted from the following two-line orbital elements,

1 32785U 08021C   15032.15141916  .00002603  00000-0  30105-3 0  1800
2 32785 097.6682 080.6385 0014491 150.7002 276.4924 14.86304555366021
Epoch (UTC): 01 February 2015 03:38:02
Eccentricity: 0.0014491
inclination: 97.6682°
perigee height: 599 km
apogee height: 619 km
right ascension of ascending node: 80.6385°
argument of perigee: 150.7002°
revolutions per day: 14.86304555
mean anomaly at epoch: 276.4924°
orbit number at epoch: 36602

The dashed part of the orbit path shows where the satellite is in the earth's shadow,  

DLR